Terminal Aerodrome Forecast
Issued by NWS

Home | Current Version | Previous Version | Text Only | Print | Product List | Glossary On
Versions: 1 2 3 4 5 6 7 8 9 10 11 12 13 14 15 16 17 18 19 20 21 22 23 24 25 26 27 28 29 30 31 32 33
000
FTUS44 KFWD 232300
TAFGKY
TAF
KGKY 232324Z 2400/2424 30020G30KT P6SM FEW060
     FM240400 31015KT P6SM SCT100
     FM240900 30011KT P6SM FEW150=

USA.gov is the U.S. government's official web portal to all federal, state and local government web resources and services.